Starlink 32583

operational
NORAD ID: 61955 Int'l Des: 2024-209 Owner: SPXS Country: US Constellation: starlink
LEOCIRCULAR

About Starlink 32583

Description loading...

Live Position

Loading 3D Globe...

Upcoming Passes

Altitude History

Altitude vs Time

uPlot chart will show altitude changes over time

Two-Line Element Set

1 61955U 24209S 25258.31132455 .00070906 00000-0 23796-2 0 9990
2 61955 53.1572 237.1601 0000731 158.4167 201.6864 15.30252509 48061
Epoch: Sep 15, 2025 • Age: 15 hours

Current Status

Altitude 491.5 km
Velocity 7.62 km/s
Sub-Earth Point -47.92°S, 159.35°W
Launch Date Nov 14, 2024
Age 0.8 years
Type internet

Technical Details

Classification Payload
Mass 730.00 kg
Dry Mass 700.00 kg
Total Mass 730.00 kg
Length 0.30 m
Diameter 4.10 m
Span 29.00 m
Shape Box + pan
Manufacturer SPXS
Bus Type Starlink V2M
Phase Status In Orbit
Owner/State SPXS/US

Large Constellations

Loading constellations...